EHI
0 0 0 0 0 0 0 0 0 0 0 0 0 0 0 0 0 0 0 0 0 0 0 0 0 0 0 0 0 0 0 0 0 0 0 0 0 0 0 0 0 0 0 0
0 0 0 0 0 0 0 0 0 0 0 0 0 0 0 0 0 0 0 0 0 0 0 0 0 0 0 0 0 0 0 0 0 0 0 0 0 0 0 0 0 0 0 0
0 0 0 0 0 0 0 0 0 0 0 0 0 0 0 0 0 0 0 0 0 0 0 0 0 0 0 0 0 0 0 0 0 0 0 0 0 0 0 0 0 0 0 0
0 0 0 0 0 0 0 0 0 0 0 0 0 0 0 0 0 0 0 0 0 0 0 0 0 0 0 0 0 0 0 0 0 0 0 0 0 0 0 0 0 0 0 0
0 0 0 0 0 0 0 0 0 0 0 0 0 0 0 0 0 0 0 0 0 0 0 0 0 0 0 0 0 0 0 0 0 0 0 0 0 0 0 0 0 0 0 0
0 0 0 0 0 0 0 0 0 0 0 0 0 0 0 0 0 0 0 0 0 0 0 0 0 0 0 0 0 0 0 0 0 0 0 0 0 0 0 0 0 0 0 0
0 0 0 0 0 0 0 0 0 0 0 0 0 0 0 0 0 0 0 0 0 0 0 0 0 0 0 0 0 0 0 0 0 0 0 0 0 0 0 0 0 0 0 0
0 0 0 0 0 0 0 0 0 0 0 0 0 0 0 0 0 0 0 0 0 0 0 0 0 0 0 0 0 0 0 0 0 0 0 0 0 0 0 0 0 0 0 0
0 0 0 0 0 0 0 0 0 0 0 0 0 0 0 0 0 0 0 0 0 0 0 0 0 0 0 0 0 0 0 0 0 0 0 0 0 0 0 0 0 0 0 0
0 0 0 0 0 0 0 0 0 0 0 0 0 0 0 0 0 0 0 0 0 0 0 0 0 0 0 0 0 0 0 0 0 0 0 0 0 0 0 0 0 0 0 0
0 0 0 0 0 0 0 0 0 0 0 0 0 0 0 0 0 0 0 0 0 0 0 0 0 0 0 0 0 0 0 0 0 0 0 0 0 0 0 0 0 0 0 0
0 0 0 0 0 0 0 0 0 0 0 0 0 0 0 0 0 0 0 0 0 0 0 0 0 0 0 0 0 0 0 0 0 0 0 0 0 0 0 0 0 0 0 0
0 0 0 0 0 0 0 0 0 0 0 0 0 0 0 0 0 0 0 0 0 0 0 0 0 0 0 0 0 0 0 0 0 0 0 0 0 0 0 0 0 0 0 0
0 0 0 0 0 0 0 0 0 0 0 0 0 0 0 0 0 0 0 0 0 0 0 0 0 0 0 0 0 0 0 0 0 0 0 0 0 0 0 0 0 0 0 0
0 0 0 0 0 0 0 0 0 0 0 0 0 0 0 0 0 0 0 0 0 0 0 0 0 0 0 0 0 0 0 0 0 0 0 0 0 0 0 0 0 0 0 0
0 0 0 0 0 0 0 0 0 0 0 0 0 0 0 0 0 0 0 0 0 0 0 0 0 0 0 0 0 0 0 0 0 0 0 0 0 0 0 0 0 0 0 0
0 0 0 0 0 0 0 0 0 0 0 0 0 0 0 0 0 0 0 0 0 0 0 0 0 0 0 0 0 0 0 0 0 0 0 0 0 0 0 0 0 0 0 0
0 0 0 0 0 0 0 0 0 0 0 0 0 0 0 0 0 0 0 0 0 0 0 0 0 0 0 0 0 0 0 0 0 0 0 0 0 0 0 0 0 0 0 0
0 0 0 0 0 0 0 0 0 0 0 0 0 0 0 0 0 0 0 0 0 0 0 0 0 0 0 0 0 0 0 0 0 0 0 0 0 0 0 0 0 0 0 0
0 0 0 0 0 0 0 0 0 0 0 0 0 0 0 0 0 0 0 0 0 0 0 0 0 0 0 0 0 0 0 0 0 0 0 0 0 0 0 0 0 0 0 0
0 0 0 0 0 0 0 0 0 0 0 0 0 0 0 0 0 0 0 0 0 0 0 0 0 0 0 0 0 0 0 0 0 0 0 0 0 0 0 0 0 0 0 0
0 0 0 0 0 0 0 0 0 0 0 0 0 0 0 0 0 0 0 0 0 0 0 0 0 0 0 0 0 0 0 0 0 0 0 0 0 0 0 0 0 0 0 0
0 0 0 0 0 0 0 0 0 0 0 0 0 0 0 0 0 0 0 0 0 0 0 0 0 0 0 0 0 0 0 0 0 0 0 0 0 0 0 0 0 0 0 0
0 0 0 0 0 0 0 0 0 0 0 0 0 0 0 0 0 0 0 0 0 0 0 0 0 0 0 0 0 0 0 0 0 0 0 0 0 0 0 0 0 0 0 0
0 0 0 0 0 0 0 0 0 0 0 0 0 0 0 0 0 0 0 0 0 0 0 0 0 0 0 0 0 0 0 0 0 0 0 0 0 0 0 0 0 0 0 0
0 0 0 0 0 0 0 0 0 0 0 0 0 0 0 0 0 0 0 0 0 0 0 0 0 0 0 0 0 0 0 0 0 0 0 0 0 0 0 0 0 0 0 0
0 0 0 0 0 0 0 0 0 0 0 0 0 0 0 0 0 0 0 0 0 0 0 0 0 0 0 0 0 0 0 0 0 0 0 0 0 0 0 0 0 0 0 0
Wind_Speed
3 5 4 3 1 1 4 7 7 8 9 9 9 8 7 6 6 5 4 3 3 2 2 3 2 2 2 3 4 4 4 5 6 6 6 6 6 6 7 6 7 7 7 7
5 6 5 4 2 2 3 5 8 9 5 6 5 4 4 5 6 5 4 3 2 2 2 2 2 2 3 4 4 4 4 5 6 6 6 6 6 6 6 7 7 7 7 8
3 6 4 3 1 2 2 3 9 7 7 5 5 6 6 6 6 5 4 3 2 3 3 3 3 3 3 4 4 4 5 6 6 6 6 6 7 7 7 7 7 8 8 8
1 4 2 8 3 6 7 4 5 7 6 7 7 6 6 6 6 5 4 3 3 3 3 3 3 3 3 4 4 5 5 6 6 6 7 7 7 8 8 7 7 8 8 8
3 1 5 5 1 4 7 3 4 8 7 6 6 3 1 4 6 6 5 4 4 3 3 3 3 3 3 4 5 5 6 6 6 6 7 8 8 9 8 7 8 8 8 8
4 3 5 7 4 4 9 2 4 7 7 7 6 2 5 5 5 5 4 3 3 2 2 2 4 3 3 5 5 6 7 7 7 7 7 8 9 9 8 7 8 8 8 8
4 4 6 7 4 4 3 8 7 8 8 7 7 7 6 6 5 4 3 3 2 2 2 4 4 3 4 5 6 7 7 7 7 7 8 9 8 7 8 8 8 7 8 8
3 3 7 7 3 6 9 6 7 8 8 7 7 6 6 7 5 4 3 2 2 1 3 4 4 3 4 6 6 6 6 7 8 8 8 8 8 8 8 7 7 7 7 7
8 9 9 6 8 7 8 8 8 8 8 9 8 7 7 6 5 4 3 3 2 2 3 4 4 3 5 6 5 5 6 7 8 9 8 7 7 8 7 6 5 6 5 5
2 6 5 4 3 5 7 8 8 8 8 8 8 7 7 6 5 4 3 3 2 2 3 4 4 4 4 5 5 5 7 7 7 8 8 8 6 6 6 6 5 5 5 5
3 5 1 1 3 6 5 5 6 6 8 9 9 7 7 6 6 5 4 3 2 2 4 5 5 5 5 4 4 5 7 7 7 7 7 8 7 6 6 6 6 6 5 4
5 7 5 6 5 5 7 7 8 8 7 7 9 8 7 6 6 5 4 3 2 3 4 4 4 5 5 4 4 5 6 7 6 6 6 6 7 8 8 8 10 10 10 7
6 5 5 5 4 5 7 8 8 9 10 8 7 7 8 6 5 4 3 3 3 4 4 4 3 4 5 4 4 5 6 7 6 6 6 7 6 6 8 8 7 7 8 8
2 1 0 2 3 4 5 7 8 7 7 8 7 7 7 6 5 5 4 4 4 3 3 3 3 4 4 4 5 6 7 8 7 6 6 6 6 6 5 6 6 5 5 6
2 1 3 2 1 0 2 4 6 6 6 6 6 7 7 7 6 5 5 4 3 2 3 3 4 5 4 4 5 6 6 6 6 6 6 6 6 5 5 5 5 5 4 4
3 5 5 5 4 3 2 3 5 7 7 7 6 7 7 7 6 5 4 4 3 4 4 4 4 4 4 4 5 5 5 11 10 7 6 6 5 5 5 5 5 5 4 4
11 10 8 8 6 5 3 1 3 5 6 7 7 7 7 6 5 5 5 5 5 5 4 4 4 4 4 4 4 4 5 8 12 8 6 6 5 5 5 4 4 4 4 4
9 8 7 7 6 6 6 6 3 0 3 5 6 6 6 6 6 6 6 5 3 3 3 4 3 3 4 4 3 4 5 5 6 6 6 6 6 5 5 4 5 5 4 4
14 13 12 12 9 7 7 6 4 2 0 3 6 7 7 7 7 6 5 4 4 4 5 4 4 3 3 4 4 3 5 6 6 6 6 7 6 5 4 4 5 4 4 3
13 13 13 12 11 9 7 6 5 4 3 2 3 4 5 6 6 6 5 5 6 6 5 4 2 2 3 4 5 3 5 6 6 6 5 5 5 5 5 5 5 4 4 3
11 11 11 11 11 10 8 8 6 5 5 4 4 6 6 6 6 5 4 5 5 5 4 3 2 2 2 4 6 4 4 5 5 5 5 5 5 5 5 5 5 4 4 3
8 8 9 9 9 9 9 7 7 7 7 6 6 6 5 6 6 5 5 5 5 6 4 2 2 2 2 4 3 4 4 5 5 4 5 5 5 4 4 5 5 4 4 3
7 7 8 9 9 9 10 9 8 8 8 8 8 8 7 7 5 5 4 3 3 5 4 3 3 2 3 2 3 3 4 4 4 5 5 5 5 4 4 5 4 4 3 3
7 7 8 8 7 7 8 9 9 7 8 8 8 7 6 4 4 4 3 6 7 6 3 3 4 1 3 2 2 2 3 4 4 5 5 5 5 4 4 4 4 4 4 5
7 7 7 7 6 5 6 7 8 8 9 7 8 7 5 3 3 3 4 5 8 7 3 4 4 1 0 1 2 2 3 3 4 4 5 5 5 5 5 4 4 4 4 4
7 6 6 5 4 4 5 5 5 6 6 7 7 6 5 2 1 2 3 4 6 6 4 2 1 1 1 1 2 3 3 4 5 5 5 5 6 6 5 5 6 5 5 5
6 4 4 4 4 4 4 4 5 6 6 6 7 6 4 2 1 3 4 4 3 3 3 3 2 2 2 3 3 3 3 3 4 4 5 5 5 5 5 6 5 5 5 6
Wind_Direction
250 274 304 296 300 115 136 163 154 173 170 194 195 187 187 171 147 137 142 147 157 192 237 262 273 277 279 280 286 288 290 286 280 278 276 276 276 274 272 270 274 267 264 261
328 321 338 337 11 72 95 115 125 135 173 202 182 156 147 146 139 139 155 166 180 215 252 269 261 260 273 282 284 286 289 286 285 287 288 284 280 278 277 274 272 269 264 261
292 312 5 326 260 121 106 132 146 163 184 166 156 162 164 160 154 162 172 182 212 243 250 250 241 247 262 272 281 291 290 289 291 290 288 284 287 288 280 276 273 271 267 261
201 16 308 255 243 126 100 62 116 127 152 167 170 174 183 178 167 171 180 198 231 243 248 241 245 259 269 282 292 294 291 290 290 289 288 288 287 283 279 274 272 271 268 263
129 210 280 298 290 143 117 71 135 133 148 153 145 104 260 204 175 180 189 201 216 218 214 233 259 269 284 296 297 296 292 290 289 289 291 292 291 287 283 280 278 273 268 265
148 174 238 247 244 140 100 125 205 152 154 155 139 122 248 216 185 182 185 195 202 209 215 256 265 271 289 294 296 290 286 286 288 288 288 289 287 285 282 277 277 278 276 269
181 208 255 242 219 115 132 222 204 172 165 161 171 196 208 183 185 181 179 183 178 194 251 261 262 271 287 291 287 282 285 291 293 292 290 286 283 282 284 284 284 282 281 279
160 181 249 238 171 172 206 193 176 172 172 169 181 182 167 169 176 173 173 188 194 224 271 273 269 270 284 285 281 288 293 297 298 297 296 300 293 293 290 287 288 288 286 288
182 209 229 215 198 199 164 167 180 175 179 165 164 169 169 173 175 183 184 208 223 227 272 284 279 265 275 279 288 297 300 300 300 301 297 293 291 294 296 290 284 285 286 285
249 270 250 222 189 170 167 173 179 172 171 163 164 169 168 173 184 192 204 219 226 242 278 286 283 276 263 274 288 297 299 300 301 303 303 301 295 287 286 287 286 284 282 281
297 286 326 273 199 182 178 162 162 167 170 166 159 165 170 177 187 195 204 219 215 235 265 277 285 283 276 279 292 300 300 299 301 298 298 301 297 287 281 272 263 264 270 265
236 239 198 228 227 180 165 176 177 171 169 166 162 168 167 177 185 186 197 209 223 249 264 275 282 284 284 281 288 298 302 303 299 299 300 299 301 306 294 281 285 270 257 254
219 223 202 227 214 184 179 184 179 175 171 171 171 164 160 168 177 178 190 202 221 240 251 262 276 281 283 283 291 293 293 297 297 296 298 299 301 303 308 311 302 292 278 266
242 148 121 253 230 210 186 180 171 164 164 162 161 155 153 157 167 174 193 213 220 229 249 258 273 281 280 286 294 295 295 297 298 293 294 293 293 293 290 296 306 305 290 269
282 166 199 248 285 221 164 142 138 158 163 162 158 156 159 161 174 190 199 201 202 233 261 269 276 280 283 290 296 296 298 297 298 296 294 292 291 292 291 292 290 290 293 291
11 26 29 32 25 22 80 138 162 183 181 176 172 171 167 164 175 187 192 189 197 242 255 256 261 268 280 291 297 297 297 304 309 303 299 300 298 297 298 300 302 301 296 284
47 29 18 17 13 17 16 327 198 196 186 180 178 173 166 162 172 194 203 207 213 226 228 229 245 264 279 286 289 292 299 305 311 311 301 298 297 297 298 301 301 298 292 283
50 42 35 30 22 14 7 3 359 245 183 177 163 164 171 177 194 206 213 218 229 238 227 227 235 261 282 288 287 289 295 296 299 300 300 299 298 296 298 301 302 300 298 297
34 28 24 23 20 20 14 4 358 354 306 167 173 187 196 197 199 204 207 212 228 244 243 238 245 261 283 291 307 294 297 299 301 301 301 303 308 307 307 306 306 305 307 304
27 22 17 12 8 6 0 352 347 341 313 257 213 210 216 217 207 202 203 216 221 215 213 217 226 244 278 292 315 295 294 296 300 306 310 312 315 315 312 308 308 312 315 311
12 7 5 1 355 350 343 337 330 310 292 276 248 236 234 234 219 202 200 230 236 209 202 203 178 200 275 299 309 295 296 301 306 311 314 316 317 321 322 317 315 318 325 326
353 350 345 340 337 330 323 319 312 301 293 281 267 254 246 243 234 224 218 217 206 192 183 164 170 212 280 309 301 302 306 312 315 318 321 322 322 324 326 323 323 329 337 342
332 328 325 320 316 310 311 313 310 305 295 285 274 261 249 239 224 209 232 223 175 181 173 173 191 227 317 321 308 315 325 329 327 325 324 324 325 326 327 330 333 337 337 343
317 313 309 308 315 323 321 317 315 313 309 301 290 275 258 250 248 227 198 165 165 170 173 179 196 263 335 328 331 343 343 337 333 331 329 330 334 339 343 347 348 352 358 0
306 307 309 317 322 316 312 316 322 321 322 318 312 304 290 245 214 196 168 166 166 162 161 183 193 203 9 4 10 5 351 345 344 342 342 343 345 349 356 358 355 359 4 3
298 299 296 294 295 304 316 326 327 323 321 319 316 312 310 308 204 156 156 163 163 157 152 155 146 124 84 55 41 21 4 355 355 357 354 351 348 353 358 3 8 11 14 17
298 303 309 317 321 323 326 331 329 322 319 317 313 309 303 288 175 154 148 143 135 125 116 112 102 97 79 63 51 29 12 3 358 357 355 353 354 356 360 5 12 18 19 24